Wind_Speed
17 17 16 15 15 14 14 13 12 12 11 10 9 8 7 5 4 3 3 3 3 2 2 2 2 3 3 4 5 5 6 6 7 8 8 9 9 9 10 11 12 12 12
16 15 15 15 15 14 13 13 12 11 11 10 9 8 7 6 5 5 4 5 4 3 3 4 4 4 5 5 6 7 7 7 8 8 9 10 10 11 11 11 12 13 13
14 13 14 14 14 14 13 13 12 11 10 9 9 8 8 7 6 5 5 5 5 4 4 5 5 6 7 7 8 8 9 9 10 10 11 11 12 13 13 13 14 15 15
13 12 12 12 13 13 13 13 12 12 11 10 9 9 8 8 7 7 6 6 6 5 5 5 6 7 8 8 9 9 10 11 11 12 13 14 14 15 15 16 16 16 17
12 11 10 10 11 12 13 12 12 12 11 10 10 10 9 8 8 8 8 8 7 6 6 6 6 7 8 8 9 10 11 12 12 12 13 14 15 16 17 17 17 18 18
10 10 10 10 11 11 11 11 11 11 11 11 10 10 10 9 9 9 9 9 9 8 7 7 7 8 8 9 10 11 11 11 12 13 13 14 14 15 16 17 18 19 19
8 8 8 9 10 11 11 11 10 11 11 10 11 10 10 10 10 9 10 10 10 9 9 8 8 8 8 9 10 11 11 12 12 13 13 13 14 15 15 16 17 18 19
7 6 7 8 9 10 11 11 11 12 11 11 11 11 11 11 11 11 11 11 10 10 10 9 9 9 9 10 10 10 11 12 13 14 14 14 14 15 15 16 17 17 18
7 6 7 8 9 10 10 11 11 11 11 10 10 10 10 11 11 11 12 11 11 11 10 10 10 10 9 10 10 11 12 12 13 13 13 14 14 15 15 16 16 17 18
6 7 6 7 9 9 10 11 11 11 10 10 10 10 11 11 11 11 11 12 12 12 11 11 11 11 11 11 11 11 12 13 13 13 14 14 15 15 16 16 16 17 18
8 8 7 7 9 10 11 11 11 11 11 11 11 11 12 12 12 11 12 12 13 13 12 12 13 12 12 12 12 12 13 13 13 14 14 15 16 16 16 16 17 17 18
8 8 8 8 9 10 11 12 12 12 13 13 14 14 13 13 13 13 13 13 14 14 14 14 14 14 13 13 13 13 13 14 15 15 15 16 16 16 16 17 17 18 18
11 8 8 9 9 11 12 13 13 13 14 14 15 15 15 15 16 15 14 14 14 14 15 14 15 15 15 14 14 14 14 15 15 16 16 17 17 17 18 18 18 18 19
12 10 9 10 11 12 13 14 14 15 15 15 16 16 16 16 15 15 15 15 15 15 15 15 15 15 15 15 15 15 15 15 16 17 17 17 18 19 19 19 19 19 19
13 12 11 12 13 13 14 15 15 16 16 17 17 17 18 17 16 16 16 16 16 16 16 16 17 16 16 17 16 15 15 16 17 17 17 18 18 19 19 19 20 20 21
16 16 16 15 14 15 15 16 17 17 18 18 18 18 19 18 17 16 17 18 18 18 17 18 18 18 18 18 17 17 17 17 17 18 18 18 18 18 19 19 19 19 19
20 20 19 18 17 17 17 18 18 19 19 19 19 19 19 18 17 17 18 19 19 19 19 19 19 19 19 18 18 18 18 18 18 19 18 18 19 19 19 20 20 19 19
21 21 21 21 19 19 19 19 20 21 20 21 21 21 21 20 19 19 19 20 20 20 20 20 21 21 20 20 19 19 19 19 19 19 19 19 19 19 20 20 20 19 19
22 22 22 22 22 21 21 21 21 22 22 22 21 21 21 21 20 20 21 20 21 21 20 21 20 20 20 20 19 19 19 19 19 19 19 19 20 20 20 20 20 20 20
25 25 25 24 23 22 23 23 23 22 22 21 21 21 21 21 21 21 21 21 22 22 21 21 21 20 20 20 20 20 20 20 20 20 20 20 20 20 20 20 20 20 20
27 26 25 24 23 23 24 24 23 23 23 23 23 23 22 22 22 22 22 22 23 24 23 23 22 22 22 21 21 21 21 21 21 21 21 20 20 20 21 20 20 21 22
26 26 26 25 24 25 25 24 24 24 24 25 24 24 24 24 24 24 25 25 25 25 25 24 24 23 23 22 22 22 22 22 21 21 21 21 21 21 21 22 22 22 23
26 26 27 26 25 25 25 25 25 26 26 26 26 25 26 26 27 26 26 27 26 26 26 25 24 24 23 23 23 24 24 23 23 22 22 22 23 23 22 22 23 23 23
27 27 26 26 26 26 26 26 26 27 27 28 27 26 27 27 28 28 28 28 27 26 26 25 25 25 24 25 25 25 25 25 24 24 24 23 23 23 23 23 23 23 23
31 29 29 29 29 28 28 28 29 29 29 29 30 28 28 28 29 29 28 28 27 26 25 25 25 25 25 26 26 26 25 25 24 25 25 23 23 23 23 23 24 24 25
33 32 30 30 30 30 30 30 30 30 30 30 31 31 29 29 29 28 28 28 28 27 27 26 26 26 26 26 26 26 26 25 25 25 24 23 23 24 24 24 25 25 26
Wind_Direction
33 35 38 41 44 45 45 47 49 49 48 49 49 49 47 47 42 26 12 357 346 338 326 317 279 262 258 252 251 251 253 257 258 257 257 259 259 259 258 258 259 259 257
32 34 39 42 43 43 43 43 43 43 42 42 40 40 38 36 30 21 9 358 346 326 316 311 297 285 277 269 260 256 257 259 261 260 258 258 260 261 261 263 264 263 261
31 35 39 40 41 41 41 41 40 38 36 35 35 31 25 23 19 12 3 352 346 335 320 306 294 285 277 272 271 267 263 263 262 262 263 263 262 265 266 266 267 265 263
26 32 34 36 37 36 36 37 37 34 31 31 30 24 19 17 13 9 1 347 337 332 322 307 297 289 285 278 274 271 268 269 269 267 267 269 269 268 269 270 269 268 268
21 26 27 28 30 30 30 30 30 28 24 23 25 20 16 15 10 4 358 349 342 334 323 311 303 296 291 285 283 276 273 272 273 275 276 276 274 271 270 270 270 269 269
18 22 23 20 21 22 21 19 19 20 17 14 17 17 14 11 7 2 358 351 343 335 326 319 313 305 299 295 289 285 281 279 277 278 278 280 279 276 275 274 272 272 270
14 16 18 14 12 11 11 11 10 12 10 10 11 10 8 6 2 359 358 355 349 344 334 326 321 315 307 300 296 295 292 287 283 280 280 281 281 281 279 278 276 273 272
359 7 10 5 1 1 1 6 9 9 9 9 7 5 4 2 358 356 356 355 350 346 341 332 329 322 316 311 305 299 298 296 290 284 284 283 283 285 283 281 281 277 272
343 354 357 358 358 357 358 360 1 1 3 4 3 360 358 359 357 356 356 356 351 346 344 340 332 328 323 318 312 307 302 300 297 293 290 289 288 286 285 284 283 281 278
328 340 344 342 345 350 353 355 354 354 354 354 351 351 352 351 348 348 348 349 347 344 342 340 335 326 323 318 313 308 305 303 300 297 293 289 287 287 287 286 285 283 281
312 318 323 330 336 340 342 344 344 343 343 345 346 344 340 340 337 336 339 340 341 338 334 334 333 327 320 317 314 310 304 303 301 298 295 294 292 292 291 288 287 285 283
301 311 319 321 326 329 331 333 333 335 338 341 341 335 334 337 340 332 332 335 335 335 331 329 328 326 322 317 315 312 307 304 303 299 298 297 295 295 294 293 290 288 285
298 293 301 307 315 321 324 326 328 330 331 334 334 330 328 327 331 331 329 331 330 329 328 327 326 323 321 317 313 311 309 308 305 302 301 301 298 296 293 293 294 293 288
290 291 293 299 306 311 313 314 317 320 322 324 325 326 328 327 327 326 324 326 327 327 325 325 325 324 323 321 313 305 306 306 305 305 305 303 300 298 294 294 294 293 292
281 286 293 298 298 301 303 304 308 312 315 317 319 321 323 323 322 322 322 321 322 324 322 322 322 321 320 320 316 311 308 306 306 304 302 301 301 299 296 294 294 293 292
274 282 289 292 293 295 297 298 301 307 312 315 315 318 320 321 322 322 320 320 319 320 319 318 319 319 319 319 316 312 310 307 305 305 303 301 300 300 300 299 297 296 296
275 281 283 288 287 289 292 295 297 300 305 309 311 313 316 316 317 319 318 318 317 316 315 315 316 317 317 316 316 314 313 312 308 307 304 302 303 302 301 301 300 299 298
278 279 281 283 280 280 285 289 292 295 299 303 305 309 313 313 312 311 312 313 314 315 314 314 314 314 315 313 313 312 313 312 309 307 306 305 305 304 303 302 300 297 296
277 280 283 282 279 278 281 285 288 291 297 299 302 306 308 308 307 309 309 309 313 315 313 312 311 313 314 313 313 312 311 311 310 308 306 305 305 305 303 301 300 297 295
275 277 280 280 277 277 279 281 287 290 294 299 301 302 304 302 302 303 306 307 309 312 314 313 312 312 312 311 311 311 310 308 308 306 305 305 305 305 303 301 299 298 296
274 276 277 275 278 279 280 281 284 289 291 294 297 299 300 300 301 301 303 305 307 308 310 311 311 309 310 311 309 309 308 307 306 305 305 305 305 304 304 303 301 300 298
274 276 277 276 277 278 279 281 283 285 287 289 291 294 298 299 300 299 301 303 303 304 305 306 306 307 306 307 307 306 305 304 305 304 303 302 302 303 302 302 302 300 299
274 278 280 276 277 277 277 278 281 282 284 287 290 294 296 297 298 298 298 299 300 300 302 302 302 304 303 302 303 303 303 303 301 301 300 300 300 301 301 302 302 301 301
272 277 277 276 275 275 274 275 279 282 283 285 286 289 292 294 295 296 297 298 298 299 299 299 299 300 301 301 301 301 301 301 300 299 299 300 301 301 301 302 303 303 303
273 275 275 273 274 274 275 276 279 281 281 284 286 286 290 292 293 294 296 297 298 298 298 297 297 298 299 299 299 299 299 300 299 299 299 299 301 301 302 302 302 303 303
272 273 273 274 275 274 274 277 279 280 281 283 286 286 287 289 290 292 293 295 295 296 297 296 295 295 296 296 297 299 299 298 297 299 299 300 302 302 301 301 301 301 302
Height
5912 5910 5908 5905 5904 5902 5900 5899 5897 5896 5895 5894 5893 5892 5891 5890 5889 5889 5888 5887 5886 5886 5885 5885 5884 5884 5884 5883 5883 5883 5883 5883 5883 5883 5883 5882 5882 5882 5882 5881 5881 5881 5880
5914 5912 5909 5907 5906 5904 5902 5900 5899 5897 5896 5895 5894 5892 5891 5890 5889 5888 5887 5886 5885 5885 5884 5883 5883 5883 5882 5882 5881 5881 5881 5881 5881 5881 5880 5880 5881 5880 5879 5879 5878 5877 5877
5915 5913 5911 5909 5907 5905 5904 5902 5900 5899 5897 5896 5894 5893 5891 5890 5889 5888 5887 5886 5884 5883 5883 5882 5881 5881 5881 5880 5879 5879 5879 5878 5878 5878 5878 5878 5877 5877 5876 5875 5875 5874 5873
5916 5914 5913 5911 5909 5907 5905 5903 5902 5900 5898 5896 5895 5893 5892 5890 5889 5887 5886 5885 5884 5882 5881 5880 5880 5879 5878 5878 5877 5876 5876 5876 5875 5875 5875 5875 5874 5874 5873 5872 5871 5870 5869
5917 5915 5913 5912 5910 5908 5906 5904 5903 5901 5899 5897 5895 5893 5891 5890 5888 5887 5885 5884 5882 5881 5880 5879 5878 5877 5876 5875 5874 5874 5873 5872 5872 5871 5871 5870 5870 5870 5869 5868 5867 5866 5865
5917 5916 5914 5913 5911 5909 5907 5905 5903 5901 5899 5896 5894 5893 5891 5890 5888 5886 5884 5883 5881 5880 5878 5877 5876 5875 5874 5873 5872 5871 5870 5869 5869 5868 5867 5867 5866 5865 5864 5863 5863 5862 5861
5917 5916 5914 5913 5911 5909 5908 5905 5903 5901 5899 5897 5895 5893 5891 5889 5887 5885 5883 5882 5880 5878 5877 5875 5874 5872 5871 5870 5869 5868 5867 5866 5865 5864 5863 5863 5862 5861 5860 5859 5858 5857 5856
5916 5915 5913 5912 5911 5909 5907 5905 5903 5901 5899 5896 5895 5893 5891 5889 5886 5884 5882 5880 5879 5877 5875 5873 5872 5870 5869 5868 5866 5865 5864 5863 5862 5860 5859 5858 5858 5857 5856 5855 5853 5852 5851
5915 5913 5912 5911 5910 5908 5907 5905 5902 5900 5898 5896 5893 5891 5889 5887 5885 5883 5881 5879 5877 5875 5873 5871 5870 5868 5866 5865 5863 5862 5861 5859 5858 5857 5856 5854 5853 5852 5851 5850 5848 5848 5846
5913 5912 5911 5909 5908 5907 5906 5904 5902 5899 5897 5894 5892 5890 5888 5886 5884 5881 5880 5878 5876 5873 5871 5869 5867 5865 5864 5862 5860 5859 5857 5856 5854 5853 5852 5850 5849 5848 5846 5845 5843 5842 5841
5911 5911 5909 5907 5906 5905 5904 5902 5900 5898 5895 5892 5891 5889 5886 5884 5881 5879 5877 5875 5873 5871 5869 5867 5865 5863 5861 5859 5857 5855 5854 5852 5850 5849 5847 5846 5845 5843 5841 5840 5838 5837 5835
5909 5908 5906 5905 5904 5903 5902 5900 5898 5896 5894 5892 5890 5887 5884 5881 5878 5876 5874 5872 5870 5868 5866 5864 5862 5859 5857 5855 5853 5851 5850 5848 5847 5845 5843 5841 5840 5838 5837 5835 5833 5831 5830
5906 5904 5903 5901 5901 5900 5899 5898 5896 5894 5892 5890 5887 5885 5882 5879 5877 5874 5872 5870 5868 5865 5863 5861 5858 5855 5853 5851 5849 5847 5846 5844 5842 5840 5838 5837 5835 5834 5832 5830 5828 5826 5824
5902 5901 5900 5899 5899 5898 5897 5896 5894 5892 5890 5887 5885 5882 5879 5876 5874 5871 5870 5867 5865 5862 5860 5857 5855 5852 5850 5847 5845 5843 5841 5840 5838 5836 5834 5832 5830 5829 5827 5825 5823 5821 5819
5899 5899 5898 5897 5896 5895 5894 5893 5891 5889 5886 5884 5881 5879 5876 5873 5870 5868 5866 5864 5862 5859 5856 5854 5851 5849 5846 5844 5841 5839 5837 5835 5833 5831 5829 5827 5825 5823 5821 5819 5817 5815 5814
5894 5894 5894 5892 5892 5891 5890 5889 5887 5885 5882 5880 5878 5875 5872 5870 5867 5865 5863 5860 5858 5855 5853 5850 5848 5845 5842 5840 5837 5835 5832 5830 5828 5826 5824 5822 5820 5818 5816 5814 5812 5810 5808
5889 5888 5888 5887 5887 5887 5885 5884 5882 5881 5878 5876 5873 5870 5868 5866 5863 5861 5859 5857 5854 5851 5849 5846 5843 5841 5838 5835 5833 5830 5828 5826 5823 5821 5819 5817 5814 5812 5810 5808 5806 5804 5802
5883 5883 5883 5883 5882 5881 5880 5879 5877 5875 5873 5871 5868 5866 5864 5862 5859 5857 5855 5852 5850 5847 5844 5841 5839 5836 5833 5831 5828 5826 5823 5821 5818 5816 5814 5811 5809 5807 5805 5803 5801 5799 5797
5878 5877 5877 5877 5876 5875 5874 5873 5871 5869 5867 5865 5863 5861 5859 5857 5854 5852 5850 5847 5845 5842 5839 5837 5834 5831 5828 5826 5823 5821 5818 5816 5813 5811 5808 5806 5803 5801 5799 5797 5795 5793 5791
5871 5871 5870 5870 5870 5869 5867 5866 5864 5863 5861 5859 5857 5855 5853 5851 5849 5847 5845 5842 5840 5837 5834 5831 5829 5826 5823 5821 5818 5816 5813 5811 5808 5805 5803 5800 5798 5795 5793 5791 5788 5786 5784
5864 5864 5863 5863 5862 5861 5860 5859 5857 5857 5855 5854 5852 5850 5847 5845 5843 5841 5839 5836 5834 5831 5828 5826 5823 5820 5818 5815 5813 5810 5807 5805 5802 5800 5797 5795 5792 5789 5787 5784 5782 5780 5778
5854 5855 5856 5855 5855 5854 5853 5852 5851 5850 5848 5847 5845 5843 5842 5839 5837 5835 5833 5830 5827 5825 5822 5819 5817 5814 5812 5809 5806 5804 5801 5799 5796 5794 5791 5789 5786 5784 5781 5779 5776 5774 5771
5846 5847 5847 5846 5846 5846 5845 5845 5844 5842 5841 5839 5838 5836 5835 5833 5830 5828 5825 5822 5820 5817 5815 5812 5810 5808 5805 5803 5800 5798 5795 5792 5790 5787 5785 5782 5780 5777 5775 5772 5770 5767 5764
5838 5839 5839 5839 5838 5838 5837 5836 5835 5835 5834 5832 5830 5829 5827 5825 5822 5820 5817 5815 5812 5810 5808 5805 5803 5801 5798 5796 5794 5791 5788 5785 5783 5780 5778 5775 5773 5771 5768 5765 5763 5760 5758
5830 5830 5831 5830 5830 5829 5829 5828 5828 5827 5826 5824 5822 5821 5819 5817 5814 5812 5810 5807 5805 5802 5800 5798 5796 5794 5791 5789 5787 5784 5781 5778 5776 5773 5771 5768 5766 5764 5761 5759 5756 5753 5750
5822 5822 5822 5822 5821 5821 5820 5820 5819 5819 5817 5816 5814 5812 5810 5808 5806 5804 5802 5800 5798 5795 5793 5790 5788 5786 5784 5782 5779 5777 5773 5770 5768 5766 5764 5761 5759 5757 5754 5752 5749 5746 5743